CST,Max TemperatureF,Mean TemperatureF,Min TemperatureF,Max Dew PointF,MeanDew PointF,Min DewpointF,Max Humidity, Mean Humidity, Min Humidity, Max Sea Level PressureIn, Mean Sea Level PressureIn, Min Sea Level PressureIn, Max VisibilityMiles, Mean VisibilityMiles, Min VisibilityMiles, Max Wind SpeedMPH, Mean Wind SpeedMPH, Max Gust SpeedMPH,PrecipitationIn, CloudCover, Events, WindDirDegrees
2012-12-1,68,57,46,52,48,41,82,64,52,30.20,30.14,30.07,10,10,10,18,8,25,0.00,6,,161
2012-12-2,68,65,62,61,57,50,83,74,59,30.14,30.09,30.07,10,10,7,16,11,28,0.01,8,Rain,189
2012-12-3,73,68,62,61,58,54,88,73,60,30.13,30.08,30.02,10,10,10,21,9,26,0.00,5,,177
2012-12-4,68,57,46,63,53,39,88,79,68,30.28,30.13,30.03,10,10,4,16,9,20,0.14,6,Rain-Thunderstorm,298
2012-12-5,62,50,39,45,38,32,93,66,34,30.36,30.27,30.15,10,10,4,12,4,,0.00,0,,44
2012-12-6,59,49,39,54,44,34,94,78,63,30.14,30.04,29.95,10,8,1,8,3,,0.00,6,,105
2012-12-7,64,60,55,61,55,54,100,86,68,29.94,29.88,29.83,10,5,0,12,3,18,0.11,8,Fog-Rain,192
2012-12-8,60,56,51,55,51,48,94,84,72,29.96,29.92,29.86,10,5,0,13,4,,0.00,8,Fog-Rain,34
2012-12-9,66,58,50,63,55,45,94,86,82,29.92,29.82,29.73,10,7,1,20,7,24,0.34,7,Rain-Thunderstorm,149
2012-12-10,48,40,32,43,29,21,82,73,64,30.10,29.94,29.83,10,10,7,18,12,24,0.05,7,,329
2012-12-11,41,32,24,27,24,19,86,69,49,30.28,30.18,30.10,10,10,5,8,3,,0.00,1,,243
2012-12-12,50,37,24,39,27,23,93,76,37,30.39,30.33,30.27,10,8,0,4,0,,0.00,1,Fog,144
2012-12-13,53,38,24,34,27,23,93,71,35,30.41,30.33,30.27,10,10,5,9,2,,0.00,0,,174
2012-12-14,57,42,26,39,31,25,93,68,36,30.31,30.21,30.07,10,10,10,12,2,,0.00,1,,170
2012-12-15,62,56,50,59,50,39,88,81,62,30.04,29.86,29.76,10,9,2,18,12,26,0.10,8,Rain,174
2012-12-16,64,60,55,59,55,50,94,85,68,29.79,29.74,29.67,10,8,0,10,7,20,0.00,4,Fog,208
2012-12-17,59,52,46,55,48,37,94,86,71,29.83,29.71,29.63,10,7,0,16,6,17,0.00,8,Fog,254
2012-12-18,60,46,33,43,39,30,93,72,45,29.90,29.85,29.79,10,9,2,16,5,22,0.00,1,,202
2012-12-19,64,50,37,52,44,34,93,73,48,29.99,29.87,29.63,10,8,0,22,6,28,0.00,3,Fog,107
2012-12-20,64,48,33,55,36,21,88,64,49,30.01,29.66,29.39,10,10,4,33,21,48,0.30,7,Rain-Thunderstorm,235
2012-12-21,46,38,30,21,15,9,64,43,25,30.31,30.20,30.01,10,10,10,21,14,29,0.00,0,,288
2012-12-22,48,36,23,28,21,14,80,54,34,30.34,30.22,30.05,10,10,10,9,4,,0.00,0,,166
2012-12-23,60,48,35,48,40,28,88,71,51,30.04,29.95,29.83,10,9,0,12,4,16,0.00,3,Fog,183
2012-12-24,51,42,32,50,38,27,94,79,44,30.10,29.92,29.78,10,5,0,20,5,18,0.00,5,Fog,341
2012-12-25,39,36,32,30,27,25,81,74,61,30.17,30.02,29.71,10,7,2,28,13,37,0.00,8,Snow,24
2012-12-26,37,35,32,32,28,25,93,78,70,30.17,29.92,29.65,10,8,0,26,20,39,0.16,8,Snow,326
2012-12-27,37,34,30,27,25,23,80,72,60,30.24,30.16,30.09,10,10,10,9,4,,0.00,7,,71
2012-12-28,39,34,30,32,31,27,93,82,75,30.10,29.97,29.84,10,7,1,10,4,,0.17,7,Snow,58
2012-12-29,35,29,23,32,27,18,87,80,64,30.39,30.15,29.87,10,6,1,21,9,25,0.00,6,Snow,287
2012-12-30,39,28,17,30,25,14,93,80,61,30.53,30.42,30.33,10,7,0,7,1,,0.00,0,Fog,203
2012-12-31,41,37,33,34,31,28,93,79,65,30.32,30.19,30.06,10,7,0,9,4,,0.29,7,Fog-Snow,175